ONEWEB-0034, 45454

Orbit data source: Space-Track

ONEWEB-0034, 45454 is a payload satellite owned by One Web (UK) in LEO that was launched on Sat, 21 Mar 2020 UTC via a SOYUZ-2-1B launch vehicle from the Tyuratam Missile And Space Complex (TTMTR). Payloads include a variety of satellites, spacecraft, and rockets equipped with specific instruments for various scientific and technological missions. These include communications satellites like Starlink; space stations such as the ISS; scientific satellites like the Hubble; Earth observation satellites from companies like Planet Labs, Umbra, and HawkEye 360; GPS; miniature CubeSats for education and research; and military/defense satellites.

Loading next visibility...
ONEWEB-0034 details
Identifier
45454, 2020-020AG
Orbit
LEO
Last TLE update16 hours ago
Origin
Flag of UKOne Web (UK)
ManufacturerOne Web
MissionOperational Commercial Communications
Bus & MotorARROW, Unknown motor
Mass148 kg wet, ~140 kg dry
Launch date (UTC)
2020-03-21 (5 years ago)
Launch vehicle
SOYUZ-2-1B
Launch site
Tyuratam Missile And Space Complex (TTMTR)
Object type
Payload
Rocket body
Debris
Shape & HBRTrap Box + 2 Pan, 5 m
Radar Cross Section2.957 m², Medium (>0.1 m² and < 1m²)

Expand to show TLE details & history

TLE from 16 hours ago
0 ONEWEB-0034
1 45454U 20020AG  24355.81705208  .00000302  00000-0  81559-3 0  9992
2 45454  87.8900 129.3308 0001508 100.4838 259.6460 13.11418384231372
Epoch: 2024-12-20T19:36Z
Definitive object data (Epoch: 2024-12-20T19:36:33.299Z)
Latitude-0.00002°
Longitude105.31493°
Altitude1,220.772 km
Speed7.244 km/s
True Right ascension08h 37m 19s
True Declination0° 00' 00"
Sunlit
Object was in full shadow at TLE epoch
Visualization TLE readout
Latitude-52.06183°
Longitude102.48538°
Altitude1,238.924 km
Speed7.234 km/s
Apparent Right ascension03h 23m 29s
Apparent Declination-73° 25' 16"
Sunlit
Object is in daylight
Visualization observer readout
Local Sidereal Time10:51:11
Azimuth201.654° SSW
Elevation-44.163°
Doppler factor1
Orbital elements
Apogee altitude1,215.94 km
Perigee altitude1,213.65 km
Semi-major axis7,592.932 km
Eccentricity0.0001508
Inclination87.89°
RAAN129.3308°
Arg. of periapsis100.4838°
True anomaly259.629°
Mean anomaly259.646°
Eccentric anomaly259.6375°
Mean motion3.28042 °/min
BSTAR0.00081559
Orbital period109.74 mins
Loading maneuver chart data...
Loading historical data...
Loading historical data...
Loading historical data...
Loading historical data...
Loading historical data...
Loading historical data...
Loading historical data...

ONEWEB-0034 Visibility forecast

Observer location: undefined°, undefined

Span
Click to sort rows by Start time (UTC) header in descending order
Start Az.
Max El. time (UTC)
Max El. Az.
Max El.
End time (UTC)
End Az.
11 mins2024-12-21 20:01:29.376Z25.194° NE2024-12-21 20:07:29.376Z83.173° E23.527°2024-12-21 20:12:29.376Z129.169° SE
12 mins2024-12-21 21:51:29.376Z347.772° N2024-12-21 21:57:29.376Z269.537° W39.593°2024-12-21 22:03:29.376Z202.214° SSW
11 mins2024-12-22 08:21:29.376Z128.644° SE2024-12-22 08:26:29.376Z78.223° E25.94°2024-12-22 08:32:29.376Z22.24° NNE
12 mins2024-12-22 10:10:29.376Z206.173° SW2024-12-22 10:16:29.376Z287.47° WNW37.211°2024-12-22 10:22:29.376Z348.447° N
|